Location: Albany
(42.6526°N, 73.7562°W)
Time: 16:24:49
(UTC+00:00)

Cosmos 1666 Rocket - Pass Details

Date: 19 November 2019
Orbit: 603 x 634 km, 82.5° (Epoch: 15 December)

Event Time Altitude Azimuth Distance (km) Brightness Sun altitude
Rises 22:21:21 0° 354° (N) 2,889 6.9 -9.7°
Reaches altitude 10° 22:23:36 10° 357° (N) 1,975 6.0 -10.1°
Maximum altitude 22:27:57 67° 81° (E) 661 3.5 -10.9°
Drops below altitude 10° 22:32:14 10° 164° (SSE) 1,946 6.1 -11.7°
Sets 22:34:26 0° 167° (SSE) 2,842 7.0 -12.0°
